Date,TemperatureHighF,TemperatureAvgF,TemperatureLowF,DewpointHighF,DewpointAvgF,DewpointLowF,HumidityHigh,HumidityAvg,HumidityLow,PressureMaxIn,PressureMinIn,WindSpeedMaxMPH,WindSpeedAvgMPH,GustSpeedMaxMPH,PrecipitationSumIn
2013-1-1,17.7,-2.4,-18.0,4.9,-9.6,-22.9,84,72,42,30.82,30.26,18,5,18,0.00
2013-1-2,16.8,0.7,-24.0,2.8,-7.9,-29.6,92,68,49,30.93,30.62,20,3,20,0.00
2013-1-3,15.3,-12.0,-27.9,-3.0,-18.6,-33.9,82,73,40,31.21,30.93,15,3,15,0.00
2013-1-4,24.0,-5.0,-23.3,8.8,-11.9,-29.0,85,72,39,31.26,30.85,15,3,15,0.00
2013-1-5,27.1,4.2,-10.3,6.9,-4.3,-14.8,82,69,41,31.01,30.77,15,2,15,0.00
2013-1-6,33.9,2.2,-13.3,7.1,-6.1,-17.9,86,71,30,31.05,30.67,9,2,9,0.01
2013-1-7,27.4,3.8,-12.0,6.1,-5.2,-16.2,85,68,35,30.85,30.50,12,2,12,0.00
2013-1-8,30.0,4.7,-12.0,6.4,-4.1,-17.1,87,68,32,31.00,30.63,11,2,11,0.00
2013-1-9,32.2,7.0,-9.3,10.9,-0.5,-13.9,89,73,40,31.14,30.74,13,2,13,0.00
2013-1-10,36.1,12.4,-7.1,22.9,5.7,-11.4,91,76,34,30.78,29.97,24,4,24,0.00
2013-1-11,24.6,10.3,-16.7,21.5,3.7,-21.9,92,75,45,30.19,29.58,39,12,39,0.00
2013-1-12,5.2,-15.0,-33.9,-9.7,-21.5,-39.7,82,72,42,30.84,30.19,10,2,10,0.00
2013-1-13,5.3,-13.3,-32.2,-6.2,-19.5,-37.9,84,73,50,31.01,30.71,9,2,9,0.00
2013-1-14,21.2,-1.1,-14.0,3.6,-8.5,-19.8,83,72,36,30.84,30.44,15,2,15,0.00
2013-1-15,25.0,-2.8,-28.1,6.6,-11.2,-33.9,84,68,42,31.01,30.65,19,7,19,0.00
2013-1-16,33.8,8.7,-6.4,13.5,2.0,-10.6,90,75,41,31.03,30.64,19,3,20,0.00
2013-1-17,35.7,7.5,-5.6,19.5,1.9,-9.9,87,79,45,31.13,30.81,7,1,8,0.00
2013-1-18,28.5,5.5,-11.1,17.5,-0.1,-16.1,86,78,49,31.10,30.76,21,3,21,0.01
2013-1-19,26.7,5.6,-9.4,9.8,-1.8,-14.8,85,72,43,31.13,30.82,19,4,19,0.00
2013-1-20,26.2,2.6,-13.9,14.4,-3.7,-18.8,86,75,43,31.09,30.78,16,3,16,0.00
2013-1-21,39.1,11.2,-8.8,15.5,1.3,-13.7,83,66,32,31.07,30.71,21,4,21,0.00
2013-1-22,34.4,11.4,-4.8,13.3,1.2,-9.9,84,64,39,30.90,30.64,19,5,19,0.00
2013-1-23,28.4,6.0,-12.2,8.6,-3.5,-18.1,80,66,37,31.07,30.83,13,3,13,0.00
2013-1-24,45.9,21.6,1.7,25.5,11.3,-3.2,83,66,40,30.95,30.49,43,5,43,0.00
2013-1-25,39.6,27.6,15.4,29.1,21.1,10.7,89,77,57,30.52,30.20,26,5,26,0.00
2013-1-26,34.4,25.4,15.1,31.4,22.7,12.4,94,89,77,30.32,29.92,6,1,6,0.05
2013-1-27,38.9,28.6,19.7,29.1,23.8,17.2,94,83,55,29.95,29.86,24,5,24,0.68
2013-1-28,31.1,25.7,13.4,28.8,21.3,8.5,96,84,63,29.88,29.60,26,8,26,0.00
2013-1-29,23.6,8.0,-7.9,11.2,-2.7,-13.6,91,65,30,30.30,29.70,30,4,30,0.00
2013-1-30,28.0,13.5,-7.9,14.6,3.4,-13.8,86,65,45,30.50,30.30,38,8,38,0.00
2013-1-31,37.9,18.6,4.4,18.6,8.8,-0.3,92,69,28,30.53,30.39,23,9,23,0.00
2013-2-1,41.2,13.0,-12.1,13.7,2.2,-16.6,89,66,22,30.71,30.45,22,5,22,0.00
2013-2-2,35.2,11.5,-7.0,10.2,1.3,-11.0,86,66,30,30.91,30.65,20,4,20,0.00
2013-2-3,29.4,14.3,-2.8,20.5,7.0,-6.7,87,73,49,30.85,30.43,15,3,15,0.00
2013-2-4,43.7,19.3,-1.5,14.1,4.6,-5.7,87,57,16,30.54,30.22,21,6,21,0.00
2013-2-5,44.2,18.4,-1.0,19.0,5.8,-5.7,84,60,30,30.49,30.20,21,4,21,0.00
2013-2-6,36.7,17.7,-3.1,24.6,9.9,-6.7,89,73,50,30.37,30.15,14,4,14,0.00
2013-2-7,40.4,17.1,-3.9,14.7,5.9,-7.5,89,65,31,30.49,30.26,15,4,15,0.00
2013-2-8,35.6,21.2,-1.8,23.7,12.1,-5.7,88,69,48,30.42,29.88,26,6,26,0.00
2013-2-9,30.4,20.0,2.7,19.1,12.5,-1.8,89,74,52,29.88,29.46,25,7,25,0.00
2013-2-10,29.0,9.2,-10.6,12.1,1.9,-14.8,88,73,37,30.26,29.81,19,5,19,0.01
2013-2-11,22.7,11.9,-5.0,11.3,5.8,-9.8,89,78,48,30.34,30.09,20,5,20,0.00
2013-2-12,26.7,3.7,-19.3,6.2,-6.5,-24.3,84,65,33,30.64,30.33,21,5,21,0.01
2013-2-13,37.9,14.3,-4.8,16.0,3.6,-9.3,89,64,33,30.65,30.28,32,6,32,0.00
2013-2-14,31.7,11.1,-10.5,12.8,0.2,-14.9,86,64,29,30.64,30.41,25,6,25,0.00
2013-2-15,32.0,11.1,-8.9,11.9,-2.1,-14.1,84,59,28,30.81,30.64,23,8,23,0.00
2013-2-16,44.7,14.2,-8.4,12.4,-1.2,-13.2,84,55,13,30.92,30.51,22,6,22,0.00
2013-2-17,40.7,13.5,-9.7,13.4,-1.1,-14.6,84,55,26,30.59,30.04,23,5,23,0.00
2013-2-18,37.2,19.1,-1.1,15.0,-2.2,-20.2,82,44,8,30.35,30.07,21,6,21,0.00
2013-2-19,36.5,9.0,-17.7,10.3,-4.4,-23.1,82,58,26,30.55,30.18,18,3,18,0.00
2013-2-20,30.9,15.7,4.5,20.4,9.7,-1.0,87,77,57,30.21,29.70,17,4,17,0.00
2013-2-21,34.9,15.1,2.5,15.5,6.2,-2.5,90,70,36,30.14,29.85,28,7,28,0.03
2013-2-22,25.4,7.4,-9.3,16.2,1.2,-13.1,89,76,41,30.46,30.10,20,4,20,0.00
2013-2-23,31.4,8.1,-15.1,17.8,0.6,-19.9,90,72,45,30.60,30.08,27,6,27,0.00
2013-2-24,30.2,13.5,0.1,15.4,3.2,-6.4,92,65,30,30.25,29.85,24,4,24,0.01
2013-2-25,40.9,13.9,-7.0,6.2,-1.7,-12.0,86,56,15,30.51,30.19,19,7,19,0.00
2013-2-26,25.8,8.1,-11.7,10.7,-4.4,-16.2,85,59,28,30.53,30.05,34,5,34,0.00
2013-2-27,33.5,7.4,-14.5,6.7,-6.7,-19.1,82,56,17,30.78,30.51,19,4,19,0.00
2013-2-28,34.7,13.0,-11.1,7.5,-2.8,-17.3,77,52,22,30.82,30.58,31,7,31,0.00
2013-3-1,44.2,30.4,13.0,18.5,12.1,2.1,66,47,23,30.66,30.33,38,7,38,0.00
2013-3-2,53.2,28.3,11.4,21.9,12.7,5.1,79,56,18,30.56,30.31,18,5,18,0.00
2013-3-3,46.7,29.0,8.9,27.1,16.2,4.7,87,63,22,30.35,29.90,49,6,49,0.00
2013-3-4,41.9,31.6,14.9,27.5,19.4,6.2,92,64,29,30.16,29.71,37,8,37,0.01
2013-3-5,47.9,22.0,-1.1,18.1,6.0,-6.7,80,53,22,30.52,30.16,20,6,20,0.00
2013-3-6,44.6,24.4,2.8,22.8,10.9,-2.3,83,59,33,30.47,30.11,21,5,21,0.00
2013-3-7,46.9,28.0,9.8,19.5,12.8,1.5,84,58,20,30.26,30.01,22,4,22,0.00
2013-3-8,38.4,23.0,8.7,30.5,17.6,5.1,94,80,47,30.12,29.82,19,2,19,0.02
2013-3-9,27.7,21.6,9.9,21.4,15.2,6.3,93,77,54,30.14,29.77,17,5,17,0.00
2013-3-10,39.4,19.7,0.7,10.6,5.5,-3.5,89,59,25,30.43,30.14,23,5,23,0.02
2013-3-11,49.4,27.0,5.9,17.0,8.4,0.1,82,51,18,30.44,30.12,26,10,26,0.00
2013-3-12,49.6,22.3,10.1,20.6,12.0,5.4,85,67,22,30.39,30.20,16,7,19,0.00
2013-3-13,54.4,31.8,11.7,26.5,16.5,7.1,85,57,24,30.51,30.32,15,4,15,0.00
2013-3-14,55.6,33.4,14.0,27.1,15.2,-0.3,83,53,11,30.58,30.29,15,4,15,0.00
2013-3-15,56.2,35.7,17.3,25.5,15.7,7.1,79,50,14,30.39,29.99,30,6,30,0.00
2013-3-16,42.1,30.2,19.1,33.2,22.9,14.0,89,75,45,30.03,29.80,22,3,22,0.06
2013-3-17,42.5,31.0,17.3,28.2,15.8,4.9,93,59,21,29.95,29.67,39,7,40,0.01
2013-3-18,39.6,32.3,24.0,14.5,6.1,-3.2,57,34,16,30.01,29.84,39,8,39,0.00
2013-3-19,43.2,28.5,14.0,16.0,9.3,2.2,76,48,18,30.31,30.00,20,4,20,0.00
2013-3-20,42.4,25.5,8.3,28.3,15.0,2.6,83,66,36,30.39,30.01,22,6,22,0.00
2013-3-21,40.9,32.6,23.2,29.7,19.7,7.5,92,63,31,30.03,29.59,35,6,35,0.01
2013-3-22,40.5,26.2,10.8,21.4,7.1,-6.9,76,49,15,29.89,29.65,35,8,35,0.00
2013-3-23,31.7,18.0,3.6,8.1,-1.8,-13.2,73,42,26,30.23,29.65,31,8,33,0.00
2013-3-24,28.0,11.8,-5.9,8.5,-3.8,-11.4,78,53,24,30.45,30.20,24,5,28,0.00
2013-3-25,36.8,18.1,-2.8,6.3,-3.7,-16.7,79,47,10,30.52,30.32,23,6,23,0.00
2013-3-26,44.4,28.2,9.8,20.6,12.2,3.1,77,53,33,30.43,30.05,23,6,23,0.00
2013-3-27,49.0,37.2,21.4,25.7,18.9,8.8,87,51,21,30.13,29.93,23,5,23,0.00
2013-3-28,51.9,35.6,20.1,22.7,18.1,13.0,79,53,24,30.18,30.02,19,3,20,0.00
2013-3-29,53.9,36.9,20.6,26.5,19.8,13.3,85,55,21,30.25,30.06,25,3,25,0.00
2013-3-30,53.9,37.5,22.1,27.2,20.8,13.0,83,56,21,30.25,29.98,26,5,26,0.00
2013-3-31,55.4,38.5,23.7,26.3,19.3,4.0,87,54,16,30.15,29.92,20,4,20,0.00
2013-4-1,52.4,38.7,26.3,29.3,20.8,10.5,81,53,22,30.04,29.78,26,6,26,0.00
2013-4-5,48.0,41.2,33.6,29.4,27.1,23.0,80,58,38,29.88,29.81,23,7,23,0.00
2013-4-6,55.6,40.4,25.0,28.9,21.3,12.7,91,54,20,29.91,29.74,30,6,32,0.00
2013-4-7,52.6,39.0,25.7,26.2,19.7,14.0,82,50,23,29.81,29.62,25,6,29,0.00
2013-4-8,48.0,35.2,22.2,32.2,23.4,15.5,91,64,27,29.70,29.26,25,6,37,0.00
2013-4-9,35.4,29.0,22.1,29.4,25.8,20.2,95,88,69,29.78,29.33,20,3,23,0.07
2013-4-10,38.2,26.8,19.6,20.7,14.6,2.5,94,62,38,30.01,29.77,23,6,23,0.08
2013-4-11,46.2,30.4,15.1,23.3,16.0,2.1,77,57,32,30.05,29.88,30,7,30,0.00
2013-4-12,48.1,32.9,18.0,23.2,17.5,11.6,83,57,25,30.04,29.86,26,5,26,0.00
2013-4-13,51.2,37.8,20.8,31.0,20.2,15.9,85,53,27,29.99,29.49,40,9,40,0.00
2013-4-14,47.9,39.0,30.2,31.9,23.6,14.6,92,57,28,29.54,29.42,41,8,43,0.08
2013-4-15,51.7,42.9,35.3,31.4,25.4,15.5,82,52,26,29.54,29.41,33,12,33,0.00
2013-4-16,55.2,44.7,36.8,24.7,18.6,8.4,56,37,17,29.56,29.36,41,16,41,0.00
2013-4-17,42.3,30.8,18.9,28.3,17.8,2.6,92,60,36,29.88,29.42,31,10,31,0.00
2013-4-18,27.0,19.8,11.4,3.7,0.6,-6.5,68,43,25,30.47,29.83,27,6,29,0.00
2013-4-19,46.5,29.8,9.8,14.8,7.8,-6.3,74,43,20,30.53,30.09,32,8,32,0.00
2013-4-20,43.7,33.4,22.7,31.0,21.8,12.7,84,64,35,30.10,29.83,24,5,24,0.01
2013-4-21,53.4,36.9,19.8,22.4,13.8,-8.9,86,48,9,30.22,29.97,36,6,36,0.00
2013-4-22,56.9,43.2,28.0,29.4,20.5,13.3,86,46,21,30.03,29.64,59,10,59,0.00
2013-4-23,45.9,34.8,22.2,22.2,11.5,-4.1,72,42,15,30.07,29.59,56,6,56,0.00
2013-4-24,50.4,34.1,18.6,16.2,10.7,3.0,73,43,18,30.19,30.03,35,5,35,0.00
2013-4-25,56.2,38.5,21.8,32.7,21.2,14.0,86,55,24,30.19,29.83,46,7,46,0.01
2013-4-26,55.1,39.3,25.6,31.0,21.9,12.5,89,56,21,30.23,29.98,29,6,29,0.00
2013-4-27,60.9,40.1,19.7,22.3,16.2,9.2,86,47,16,30.34,30.07,22,4,22,0.00
2013-4-28,64.7,44.2,21.1,20.8,17.0,13.0,74,38,16,30.16,29.82,36,6,36,0.00
2013-4-29,61.1,39.3,26.9,26.8,21.3,18.5,74,52,20,29.92,29.71,45,7,45,0.00
2013-4-30,65.8,54.0,29.3,25.8,19.0,13.8,73,29,16,29.66,29.46,56,16,56,0.00
2013-5-1,56.9,45.1,28.5,24.1,12.3,-3.5,46,28,10,30.08,29.52,61,12,61,0.00
2013-5-2,50.2,33.1,14.2,10.5,4.1,-4.1,74,35,13,30.42,30.03,29,4,29,0.00
2013-5-3,61.9,39.1,15.2,18.0,11.4,3.9,72,37,12,30.42,29.91,31,6,31,0.00
2013-5-4,61.4,40.9,19.4,21.6,16.7,11.2,78,42,15,29.99,29.79,27,4,27,0.00
2013-5-5,53.9,42.8,27.7,29.3,22.1,16.9,69,46,25,30.00,29.85,31,6,31,0.00
2013-5-6,47.7,37.8,32.2,41.3,32.0,27.7,94,80,60,30.00,29.81,30,4,30,0.17
2013-5-7,51.1,43.0,30.5,31.8,27.9,24.0,91,57,40,30.01,29.83,37,8,37,0.01
2013-5-8,46.4,36.2,28.0,33.3,26.5,20.5,93,70,38,30.03,29.88,31,7,31,0.02
2013-5-9,53.2,39.3,29.5,32.9,28.2,24.7,92,67,36,30.11,29.97,23,3,23,0.01
2013-5-10,58.7,38.8,24.6,32.3,27.6,22.0,92,68,29,30.30,30.06,24,4,24,0.00
2013-5-11,61.5,40.4,22.8,31.4,25.9,20.8,92,62,23,30.41,30.21,27,4,27,0.00
2013-5-12,67.0,47.1,26.6,32.0,27.1,23.0,88,52,21,30.36,30.05,19,5,19,0.00
2013-5-13,70.5,49.9,29.0,35.4,29.6,23.4,86,51,19,30.21,29.98,24,5,24,0.00
2013-5-14,69.5,48.6,31.0,42.8,34.0,22.8,91,62,20,30.04,29.80,21,5,21,0.04
2013-5-15,63.0,47.7,36.6,44.1,37.9,31.2,90,71,32,29.89,29.74,25,5,30,0.22
2013-5-16,67.3,49.4,29.4,36.9,28.1,21.7,92,52,20,29.94,29.69,22,5,22,0.00
2013-5-17,66.2,48.8,26.5,28.3,17.0,2.1,84,38,8,29.90,29.69,27,6,27,0.00
2013-5-18,58.7,43.4,26.8,28.7,22.7,15.8,75,47,23,29.86,29.67,29,6,29,0.00
2013-5-19,54.1,39.4,26.7,31.5,23.5,11.8,86,57,20,29.88,29.70,33,6,33,0.03
2013-5-20,55.7,38.6,24.0,32.8,25.5,19.0,85,63,28,29.99,29.84,25,6,25,0.00
2013-5-21,64.3,46.4,25.9,30.8,24.0,17.7,88,49,19,30.04,29.76,28,4,28,0.00
2013-5-22,66.7,51.0,29.9,30.2,24.0,19.1,76,39,18,29.82,29.60,33,8,33,0.00
2013-5-23,70.6,51.2,25.9,27.6,21.8,16.3,80,38,14,29.86,29.67,48,10,48,0.00
2013-5-24,68.1,50.9,26.6,22.2,17.1,7.8,72,32,11,29.91,29.76,31,7,31,0.00
2013-5-25,69.8,50.7,24.7,22.9,16.1,3.9,78,33,8,29.99,29.77,30,7,30,0.00
2013-5-26,68.8,50.9,28.3,23.3,16.0,3.5,71,32,8,29.91,29.71,23,7,23,0.00
2013-5-27,67.0,48.4,26.2,23.4,16.4,11.3,67,33,12,29.86,29.62,26,7,26,0.00
2013-5-28,64.7,46.8,24.2,20.9,17.1,7.7,72,35,11,29.77,29.49,29,6,29,0.00
2013-5-29,58.0,45.6,33.0,32.6,22.5,9.6,87,45,16,29.66,29.39,45,7,45,0.01
2013-5-30,61.7,48.4,30.2,32.8,21.7,10.4,89,44,14,29.76,29.64,45,9,45,0.00
2013-5-31,61.9,48.4,30.2,24.1,14.0,-0.4,66,31,9,29.92,29.71,41,7,41,0.00
2013-6-1,73.7,49.5,24.3,20.0,9.5,-14.5,61,28,3,30.07,29.84,22,5,22,0.00
2013-6-2,72.5,51.4,25.5,27.4,20.4,11.9,68,34,11,30.03,29.69,32,5,32,0.00
2013-6-3,70.5,50.9,31.6,37.7,29.4,19.3,76,47,16,29.82,29.63,48,5,48,0.00
2013-6-4,71.2,52.1,30.9,37.5,28.6,20.7,83,46,17,29.94,29.74,32,4,32,0.00
2013-6-5,73.5,55.0,31.2,30.4,22.5,9.3,74,35,9,29.91,29.66,31,5,31,0.00
2013-6-6,72.7,52.6,30.8,31.7,25.2,17.4,71,39,13,29.90,29.69,18,4,18,0.00
2013-6-7,72.1,52.3,28.6,35.9,27.6,21.4,85,45,16,29.97,29.70,24,4,33,0.00
2013-6-8,77.3,58.0,33.9,33.7,26.2,15.9,74,36,11,29.81,29.59,29,5,29,0.00
2013-6-9,82.8,61.9,36.6,32.6,23.4,10.1,69,30,7,29.82,29.62,28,6,28,0.00
2013-6-10,83.3,62.1,35.5,30.7,24.5,15.2,69,30,9,29.84,29.61,26,6,26,0.00
2013-6-11,78.7,60.5,34.9,28.7,18.7,7.1,70,27,7,29.82,29.65,31,8,31,0.00
2013-6-12,79.5,59.8,35.1,26.5,20.8,13.4,61,27,10,29.96,29.75,24,6,24,0.00
2013-6-13,80.2,60.0,34.3,35.4,26.2,21.3,67,32,12,29.94,29.67,22,6,32,0.00
2013-6-14,76.5,61.4,39.2,37.8,27.0,0.3,78,34,7,29.80,29.55,29,6,29,0.00
2013-6-15,72.8,56.1,31.3,31.5,24.4,15.6,66,32,12,29.89,29.68,31,6,31,0.00
2013-6-16,69.3,53.2,35.7,47.5,34.7,28.4,78,52,25,29.95,29.80,29,5,29,0.08
2013-6-17,75.5,53.5,33.9,41.1,32.2,22.5,89,51,16,30.04,29.81,25,4,25,0.02
2013-6-18,74.8,55.3,31.7,37.7,27.8,5.0,89,44,8,30.00,29.68,25,7,25,0.00
2013-6-19,75.8,58.4,29.6,20.9,11.5,-1.3,65,22,5,29.81,29.59,30,8,30,0.00
2013-6-20,74.4,55.9,30.4,18.3,13.7,1.3,56,23,7,29.78,29.65,30,7,30,0.00
2013-6-21,71.0,54.6,28.7,23.0,18.6,13.4,68,29,12,29.87,29.70,23,6,24,0.00
2013-6-22,70.5,54.3,31.9,24.8,18.3,9.1,68,30,10,29.85,29.65,19,6,24,0.00
2013-6-23,75.3,55.2,29.2,23.4,15.7,3.7,69,27,7,29.85,29.61,22,6,24,0.00
2013-6-24,69.9,47.0,30.0,22.5,17.6,5.7,64,36,9,29.81,29.66,24,5,31,0.00
2013-6-25,75.3,60.0,38.6,31.0,24.7,16.0,48,27,17,29.82,29.65,22,7,23,0.00
2013-6-26,82.0,61.5,37.0,34.3,30.2,20.9,75,37,13,29.94,29.75,20,4,20,0.00
2013-6-27,83.9,62.8,41.1,40.0,32.1,24.5,70,36,12,30.00,29.80,36,5,36,0.00
2013-6-28,82.9,60.0,40.6,39.9,34.9,26.5,73,43,14,30.06,29.89,29,4,29,0.00
2013-6-29,74.8,57.1,44.6,50.5,42.3,33.8,96,62,24,29.99,29.76,27,4,27,0.11
2013-6-30,81.3,56.4,39.3,51.2,43.0,35.2,97,69,21,30.01,29.77,35,3,35,0.01
2013-7-1,81.5,59.7,36.1,45.1,38.5,30.1,95,55,17,30.04,29.78,28,4,29,0.00
2013-7-2,80.0,60.2,43.8,46.1,39.9,33.2,83,52,19,29.92,29.67,21,4,21,0.02
2013-7-3,81.0,58.2,37.1,42.8,36.0,26.7,89,52,16,29.86,29.60,29,4,30,0.00
2013-7-4,79.8,62.5,42.4,42.8,37.9,31.3,78,44,18,29.77,29.55,20,3,23,0.00
2013-7-5,76.5,60.1,50.9,54.8,47.1,40.2,87,65,31,29.67,29.48,25,3,25,0.45
2013-7-6,75.8,57.6,44.1,52.3,45.7,41.5,93,68,32,29.82,29.63,29,3,33,0.02
2013-7-7,78.6,61.8,47.9,51.6,46.1,41.4,87,61,27,29.84,29.65,24,4,25,0.05
2013-7-8,80.3,61.2,44.6,51.2,46.2,37.6,94,63,23,29.92,29.74,23,3,25,0.04
2013-7-9,83.3,62.1,42.7,49.1,42.9,36.0,94,57,20,30.01,29.80,25,4,25,0.00
2013-7-10,80.0,61.5,45.0,48.9,43.8,37.7,86,55,28,29.92,29.70,28,4,28,0.00
2013-7-11,83.8,59.6,40.6,52.7,46.0,38.3,93,66,27,29.92,29.62,27,5,27,0.16
2013-7-12,73.5,58.3,47.8,54.4,48.9,43.8,94,73,40,29.84,29.69,41,6,41,0.01
2013-7-13,75.3,60.1,47.0,54.5,48.6,43.6,92,68,36,29.89,29.73,25,4,25,0.03
2013-7-14,76.4,58.8,46.3,54.0,49.6,44.1,93,74,37,29.90,29.73,19,3,24,0.05
2013-7-15,69.3,56.8,48.6,55.5,51.0,46.6,94,82,50,29.86,29.72,17,2,17,0.13
2013-7-16,77.0,60.5,45.5,51.7,45.1,39.3,94,62,31,29.91,29.74,23,3,23,0.00
2013-7-17,80.3,60.9,41.1,48.0,44.0,38.4,91,58,25,29.98,29.77,12,3,19,0.00
2013-7-18,78.5,59.0,45.0,50.5,45.9,40.8,87,64,33,29.91,29.69,37,5,37,0.02
2013-7-19,74.7,54.8,45.4,53.0,48.3,42.9,93,81,34,29.94,29.77,20,4,20,0.40
2013-7-20,83.6,61.9,47.2,51.9,44.9,31.7,95,62,18,29.92,29.63,22,4,22,0.00
2013-7-21,83.3,62.3,45.1,48.3,43.0,31.8,91,56,18,29.75,29.57,22,5,22,0.00
2013-7-22,81.8,69.0,53.6,44.4,40.9,35.4,66,38,22,29.74,29.57,20,4,25,0.00
2013-7-23,84.0,61.6,41.1,46.6,38.5,22.8,88,50,11,29.87,29.63,21,4,21,0.00
2013-7-24,75.7,60.3,50.4,51.1,44.6,36.5,91,59,28,29.87,29.72,23,4,23,0.07
2013-7-25,79.3,63.1,48.3,52.0,44.1,35.3,95,57,21,29.86,29.70,24,3,24,0.00
2013-7-26,80.2,63.3,45.3,47.9,43.3,30.1,88,53,18,29.93,29.73,25,4,25,0.00
2013-7-27,77.5,56.3,41.6,51.8,45.9,33.1,94,72,21,29.91,29.69,21,3,21,0.32
2013-7-28,70.0,56.7,49.3,54.2,49.6,43.0,96,79,42,29.81,29.64,23,4,23,0.06
2013-7-29,72.3,57.2,47.2,50.8,45.7,37.7,96,69,29,29.95,29.76,33,4,33,0.09
2013-7-30,77.0,56.3,39.5,47.9,38.8,26.9,95,62,17,30.09,29.94,23,4,23,0.00
2013-7-31,80.2,67.7,39.6,41.9,35.3,27.0,90,35,15,30.13,29.84,19,4,19,0.00
2013-8-1,67.1,55.5,44.0,53.3,45.7,38.4,93,71,49,29.94,29.78,15,3,18,0.40
2013-8-2,74.0,57.4,46.4,53.2,48.6,43.7,96,75,37,29.92,29.75,22,5,22,0.04
2013-8-3,72.5,55.8,47.8,53.4,48.6,44.8,94,79,38,29.98,29.81,10,3,17,0.28
2013-8-4,73.8,56.7,47.5,52.4,47.7,40.5,95,75,32,30.05,29.86,26,4,26,0.14
2013-8-5,68.3,55.5,49.1,53.3,49.5,42.8,96,82,48,29.98,29.80,20,3,20,0.28
2013-8-6,63.9,54.6,46.9,52.2,47.9,44.0,95,79,55,29.93,29.82,16,4,16,0.24
2013-8-7,58.9,49.8,46.0,50.9,46.8,44.6,96,90,64,29.93,29.82,13,2,13,0.58
2013-8-8,66.4,51.0,44.8,51.7,44.7,37.4,96,81,38,30.00,29.84,27,3,27,0.10
2013-8-9,65.7,51.6,42.0,47.9,43.2,38.9,95,75,41,30.07,29.95,27,3,27,0.02
2013-8-10,71.5,51.0,38.4,47.2,41.7,31.7,95,75,28,30.15,29.93,32,4,32,0.45
2013-8-11,71.8,52.6,42.6,48.6,40.7,30.7,95,69,25,30.15,29.95,17,4,17,0.00
2013-8-12,68.3,51.9,38.5,48.8,43.2,36.6,95,75,39,30.06,29.87,21,3,21,0.14
2013-8-13,69.3,53.8,44.4,53.0,44.4,35.4,96,74,35,30.08,29.93,22,4,22,0.00
2013-8-14,72.5,54.2,37.6,45.2,39.0,28.0,93,62,23,30.09,29.88,28,4,28,0.00
2013-8-15,75.2,55.2,35.5,43.4,35.6,26.3,91,55,18,30.11,29.90,21,3,21,0.00
2013-8-16,78.3,57.4,36.1,40.9,34.1,22.5,90,50,14,30.10,29.87,11,3,19,0.00
2013-8-17,77.4,59.6,43.7,42.9,37.4,28.7,79,49,17,30.01,29.78,14,2,15,0.00
2013-8-18,74.8,55.2,41.7,52.9,45.0,38.3,90,71,29,29.99,29.81,24,3,24,0.14
2013-8-19,81.5,57.8,43.4,50.6,46.2,39.7,93,69,26,30.04,29.83,26,4,26,0.05
2013-8-20,80.0,57.4,42.9,51.0,45.3,40.0,92,68,26,29.94,29.76,29,4,29,0.00
2013-8-21,79.8,55.2,43.4,51.1,44.8,40.1,89,71,29,30.02,29.83,40,7,40,0.00
2013-8-22,76.9,60.3,43.9,50.3,45.2,41.1,93,62,31,30.06,29.77,20,4,20,0.00
2013-8-23,74.0,56.4,46.9,52.7,46.0,32.9,94,72,24,29.86,29.64,26,4,26,0.05
2013-8-24,68.0,57.0,47.6,51.0,46.6,37.3,96,70,44,29.94,29.76,29,3,29,0.27
2013-8-25,63.0,54.0,48.7,53.5,50.1,47.2,95,87,60,30.03,29.92,26,2,26,0.40
2013-8-26,66.5,54.3,49.8,55.0,51.2,48.5,96,90,58,30.05,29.96,19,2,19,0.02
2013-8-27,77.6,60.3,42.4,54.0,48.5,41.1,95,69,33,30.00,29.78,14,3,19,0.08
2013-8-28,82.0,59.1,42.7,53.5,46.6,41.1,95,68,29,29.96,29.76,22,4,22,0.01
2013-8-29,78.3,58.1,42.3,52.6,45.6,34.0,95,67,20,30.02,29.86,16,4,16,0.00
2013-8-30,80.0,60.8,49.5,51.6,46.3,38.3,91,64,24,30.00,29.77,34,4,34,0.04
2013-8-31,76.3,59.1,45.9,51.0,45.9,38.7,94,66,26,29.90,29.74,20,3,20,0.00
2013-9-1,77.5,60.2,41.9,49.0,44.9,36.8,95,62,26,29.94,29.72,22,4,22,0.00
2013-9-2,77.2,59.1,49.3,52.0,47.5,29.8,90,69,19,29.90,29.73,17,3,17,0.01
2013-9-3,76.4,57.6,42.0,50.1,45.5,36.9,95,69,26,30.01,29.85,16,3,16,0.00
2013-9-4,77.0,60.8,49.1,55.3,47.5,35.1,90,65,24,29.99,29.82,15,3,15,0.01
2013-9-5,77.1,59.1,43.6,50.1,44.9,37.2,94,64,27,30.04,29.85,26,3,26,0.00
2013-9-6,80.2,57.4,39.4,44.2,40.1,34.5,94,60,21,30.08,29.80,17,4,17,0.00
2013-9-7,77.0,55.4,38.9,50.3,42.8,36.8,94,67,26,30.00,29.76,18,4,18,0.00
2013-9-8,76.0,57.9,42.3,49.2,43.8,37.6,93,64,27,29.91,29.62,18,4,18,0.01
2013-9-9,69.0,52.5,41.1,51.4,44.8,38.9,94,77,38,29.78,29.62,30,3,30,0.14
2013-9-10,56.4,50.1,44.9,50.8,48.0,43.5,98,93,77,29.93,29.77,11,2,11,0.39
2013-9-11,67.2,55.0,44.4,52.4,48.0,42.2,98,80,43,29.93,29.80,15,3,15,0.02
2013-9-12,68.0,51.0,40.5,50.6,45.6,38.6,96,84,46,30.02,29.80,25,3,25,0.21
2013-9-13,64.8,53.1,46.1,49.8,45.6,41.3,96,77,43,29.89,29.68,21,3,21,0.68
2013-9-14,61.2,49.0,42.3,47.5,44.4,40.9,96,85,54,29.88,29.71,29,3,29,0.41
2013-9-15,65.0,51.2,43.3,49.3,44.5,41.4,95,79,47,29.97,29.85,15,3,15,0.06
2013-9-16,65.9,51.9,43.3,49.6,44.9,40.9,95,79,43,30.02,29.82,13,3,19,0.07
2013-9-17,65.2,50.8,37.9,49.0,43.3,36.8,97,78,45,30.02,29.75,20,3,20,0.02
2013-9-18,65.5,51.6,45.7,50.8,46.3,40.7,96,84,49,29.82,29.63,23,4,23,0.57
2013-9-19,65.5,50.7,41.5,49.4,43.0,40.0,96,77,41,29.90,29.76,16,3,16,0.00
2013-9-20,68.8,50.6,33.6,44.1,36.0,19.9,96,64,17,30.03,29.81,14,4,14,0.00
2013-9-21,66.8,49.7,33.3,45.2,37.8,31.5,94,67,34,29.99,29.72,22,4,22,0.00
2013-9-22,52.0,44.6,34.1,46.8,41.5,32.4,96,89,75,29.75,29.42,19,3,34,0.93
2013-9-23,54.4,42.7,33.5,34.4,30.7,24.2,94,65,33,30.12,29.58,36,5,36,0.01
2013-9-24,65.5,43.2,25.0,34.3,27.9,22.0,93,62,22,30.26,29.96,19,4,19,0.00
2013-9-25,63.0,46.8,26.9,36.8,29.9,24.6,93,58,28,29.98,29.55,32,8,32,0.00
2013-9-26,60.7,51.2,37.9,33.5,24.7,17.9,61,37,20,29.64,29.48,29,8,29,0.00
2013-9-27,53.2,40.3,28.6,39.4,31.5,17.9,94,72,46,30.00,29.47,31,8,31,0.38
2013-9-28,59.0,38.7,24.3,31.7,23.0,13.4,85,58,21,30.31,30.00,19,6,19,0.00
2013-9-29,62.6,42.5,24.8,35.8,27.3,17.3,92,61,18,30.27,29.96,19,4,19,0.00
2013-9-30,68.2,47.2,28.4,37.2,30.5,24.7,88,57,27,30.08,29.77,20,5,20,0.00
2013-10-1,69.0,47.2,29.0,36.2,29.2,19.9,93,58,17,30.02,29.78,17,4,17,0.00
2013-10-2,64.5,44.5,24.8,29.0,25.5,21.1,90,54,21,30.03,29.77,18,4,18,0.00
2013-10-3,58.4,43.9,25.3,32.5,27.0,21.8,90,56,30,29.89,29.57,25,7,25,0.00
2013-10-4,50.8,37.2,22.9,28.2,10.6,-10.7,77,37,10,30.10,29.56,36,7,36,0.00
2013-10-5,52.2,34.9,21.0,18.4,10.1,-5.0,71,40,11,30.36,30.06,28,5,28,0.00
2013-10-6,65.3,39.1,16.3,23.8,14.2,5.2,74,42,15,30.46,30.19,12,3,17,0.00
2013-10-7,68.0,42.8,22.2,28.9,23.6,18.7,88,54,17,30.34,29.98,19,4,19,0.00
2013-10-8,60.4,42.2,23.8,29.2,24.6,20.5,89,55,24,30.07,29.73,24,5,24,0.00
2013-10-9,57.2,39.7,22.4,34.5,24.6,15.9,92,61,20,29.93,29.79,30,5,30,0.00
2013-10-10,46.5,35.6,27.0,34.7,30.3,22.6,93,82,50,29.89,29.52,26,6,26,0.23
2013-10-11,47.7,31.5,15.0,34.0,24.7,12.2,93,77,39,30.18,29.83,15,4,15,0.24
2013-10-12,49.3,32.7,19.5,28.5,23.2,16.4,90,71,38,30.30,30.08,17,5,17,0.00
2013-10-13,55.2,38.3,26.5,38.5,31.8,23.6,95,80,44,30.25,29.89,26,4,26,0.07
2013-10-14,43.7,40.3,37.7,32.2,26.3,23.0,66,57,50,29.92,29.83,22,9,22,0.00
2013-10-15,44.1,34.0,18.4,27.8,21.1,14.8,93,62,37,30.20,30.02,21,4,21,0.00
2013-10-16,44.5,30.3,21.1,27.9,20.5,9.9,94,70,25,30.22,30.06,16,5,16,0.09
2013-10-17,51.2,30.9,14.6,25.2,17.0,7.5,88,61,19,30.30,29.99,27,5,27,0.00
2013-10-18,44.0,29.9,19.3,21.7,13.6,3.8,85,55,24,30.31,30.05,22,4,22,0.00
2013-10-19,54.4,33.3,18.9,19.2,13.3,7.1,71,47,17,30.34,30.10,20,7,20,0.00
2013-10-20,54.6,34.6,18.1,22.0,17.3,10.9,85,54,19,30.15,29.86,24,5,24,0.00
2013-10-21,53.0,34.6,20.8,25.4,15.1,5.5,86,52,15,30.27,30.05,22,4,22,0.00
2013-10-22,60.9,36.6,18.2,22.9,17.9,12.4,82,52,15,30.40,30.14,15,4,15,0.00
2013-10-23,61.9,37.8,19.9,24.6,20.4,9.4,89,58,13,30.33,30.05,14,3,14,0.00
2013-10-24,59.6,38.0,19.4,25.6,21.8,16.3,90,58,20,30.32,30.07,15,3,15,0.00
2013-10-25,50.9,37.3,32.8,36.7,30.6,24.3,96,78,51,30.24,30.01,18,2,18,0.18
2013-10-26,53.9,37.8,30.1,37.5,31.7,24.1,96,81,33,30.36,30.21,10,2,10,0.11
2013-10-27,52.9,36.2,22.3,33.2,27.1,20.3,94,73,41,30.27,29.89,20,4,20,0.01
2013-10-28,47.7,36.7,27.0,33.2,25.6,20.2,93,68,35,29.95,29.78,27,6,27,0.00
2013-10-29,41.6,34.8,30.7,31.7,27.4,22.1,95,76,46,29.93,29.78,27,5,27,0.01
2013-10-30,34.8,23.8,10.7,24.6,17.8,7.5,92,78,57,30.10,29.86,18,3,18,0.01
2013-10-31,42.8,25.3,11.2,23.2,15.9,7.9,88,69,38,30.31,30.06,20,8,20,0.03
2013-11-1,44.4,31.3,19.2,23.0,15.8,10.3,86,57,27,30.37,30.22,36,8,36,0.01
2013-11-2,54.7,31.6,14.4,21.4,16.4,9.7,83,58,24,30.48,30.10,19,4,19,0.00
2013-11-3,43.7,33.2,20.9,27.9,21.3,12.1,87,63,33,30.10,29.74,21,7,25,0.00
2013-11-4,43.2,30.3,15.6,29.6,20.1,11.9,96,69,34,30.00,29.83,21,4,21,0.00
2013-11-5,35.5,26.0,9.5,29.8,16.3,-2.8,96,70,21,30.36,29.82,19,5,19,0.05
2013-11-6,43.2,21.3,1.2,18.1,7.8,-3.9,81,59,29,30.72,30.36,20,6,20,0.00
2013-11-7,52.2,28.8,12.1,23.4,16.0,8.4,87,63,29,30.81,30.38,17,3,17,0.00
2013-11-8,54.1,34.9,20.1,22.8,18.7,11.4,81,56,19,30.38,29.99,28,6,28,0.00
2013-11-9,56.5,33.8,18.2,23.4,19.4,13.4,87,61,18,30.35,30.13,10,3,14,0.00
2013-11-10,55.2,33.6,18.3,22.9,19.1,14.6,88,61,23,30.47,30.22,18,3,18,0.00
2013-11-11,54.7,32.7,18.3,21.1,16.8,9.0,87,59,17,30.57,30.31,17,3,17,0.00
2013-11-12,56.1,32.2,16.8,21.0,16.4,6.5,88,59,15,30.74,30.46,11,3,11,0.00
2013-11-13,51.4,31.7,15.6,24.5,19.0,12.3,89,63,24,30.60,30.18,14,3,14,0.00
2013-11-14,50.1,33.8,21.8,25.1,19.9,6.8,84,61,18,30.20,29.91,22,5,22,0.00
2013-11-15,41.2,28.5,17.3,30.7,22.6,13.7,94,79,46,29.92,29.65,33,6,33,0.00
2013-11-16,34.0,29.1,22.3,27.9,22.9,15.6,91,78,65,29.75,29.58,51,12,51,0.01
2013-11-17,41.7,30.5,18.5,27.2,20.3,11.5,81,66,41,30.27,29.74,45,8,47,0.00
2013-11-18,48.3,20.4,3.5,23.0,12.2,0.3,87,73,34,30.58,30.27,18,3,18,0.00
2013-11-19,43.3,26.8,11.3,28.1,19.4,8.3,89,75,51,30.48,30.05,25,5,25,0.00
2013-11-20,43.2,29.6,18.4,29.6,23.7,15.4,94,80,49,30.08,29.82,16,4,21,0.00
2013-11-21,38.7,31.1,26.3,32.6,27.9,24.8,95,88,61,30.17,29.91,23,2,23,0.05
2013-11-22,30.3,28.4,26.1,29.0,27.0,24.6,95,94,94,30.38,30.15,11,2,11,0.00
2013-11-23,30.3,26.0,23.3,28.3,24.1,21.8,94,93,85,30.47,30.32,16,3,16,0.00
2013-11-24,40.9,25.4,19.0,26.8,21.9,17.3,95,87,55,30.34,30.03,17,3,17,0.07
2013-11-25,40.4,22.5,4.6,24.6,16.8,1.8,94,80,51,30.51,30.02,12,2,12,0.05
2013-11-26,29.7,10.3,-2.4,17.8,5.7,-5.8,92,82,56,30.87,30.52,7,1,9,0.01
2013-11-27,38.4,8.6,-5.7,20.9,3.1,-9.6,92,80,39,30.94,30.60,6,1,6,0.00
2013-11-28,38.9,10.4,-1.9,21.9,4.7,-5.3,92,79,40,30.88,30.62,7,1,7,0.00
2013-11-29,40.9,10.5,-4.4,18.4,4.3,-8.0,92,78,35,30.93,30.67,7,1,7,0.01
2013-11-30,32.7,9.2,-5.3,18.0,4.2,-9.1,91,81,50,30.95,30.65,7,1,7,0.00
2013-12-1,30.6,13.7,-2.5,18.1,7.3,-6.0,90,76,55,30.92,30.56,24,4,24,0.00
2013-12-2,48.8,26.8,11.1,23.0,15.5,7.2,90,66,27,30.57,29.90,29,7,29,0.00
2013-12-3,36.1,29.1,18.1,27.3,20.0,11.5,92,69,54,29.91,29.51,24,9,24,0.00
2013-12-4,29.3,22.4,0.1,26.5,16.6,-7.4,95,79,42,29.87,29.35,35,14,35,0.00
2013-12-5,16.8,3.1,-20.4,4.8,-4.3,-24.9,86,72,50,30.43,29.88,19,5,19,0.00
2013-12-6,15.7,-0.4,-15.5,6.3,-7.1,-20.1,85,74,54,30.67,30.42,21,6,21,0.00
2013-12-7,17.9,7.1,-10.2,13.3,2.5,-14.2,87,81,62,30.66,30.00,19,6,24,0.00
2013-12-8,18.1,9.1,-16.0,13.4,-2.7,-21.0,87,60,29,30.28,29.88,52,9,52,0.00
2013-12-9,15.9,-8.2,-25.2,-7.1,-18.0,-30.3,81,64,27,31.17,30.28,22,6,22,0.00
2013-12-10,15.9,-7.8,-23.5,-0.5,-15.0,-28.4,87,72,44,31.23,30.90,11,2,11,0.00
2013-12-11,27.2,0.3,-12.4,7.6,-6.1,-17.0,88,76,40,31.30,31.05,10,2,10,0.00
2013-12-12,23.7,1.4,-12.6,8.1,-4.7,-16.8,86,76,41,31.34,30.88,4,2,8,0.00
2013-12-13,38.2,12.0,-4.9,14.0,2.9,-8.5,89,70,27,30.86,30.40,8,2,13,0.00
2013-12-14,27.1,12.4,-0.2,12.2,3.3,-4.4,84,68,48,30.81,30.55,15,5,22,0.00
2013-12-15,43.7,23.7,6.4,18.8,11.0,0.6,84,59,30,30.80,30.50,22,9,22,0.00
2013-12-16,46.3,24.7,13.0,22.4,11.9,5.8,77,60,27,30.62,30.44,22,11,23,0.00
2013-12-17,38.7,13.6,-2.6,14.0,4.8,-6.3,87,69,33,30.83,30.61,17,3,19,0.00
2013-12-18,41.5,16.8,-3.2,18.5,7.8,-6.8,89,70,37,30.75,30.21,19,2,19,0.00
2013-12-19,37.8,21.9,6.2,23.6,15.0,2.4,91,76,49,30.21,29.82,16,4,16,0.00
2013-12-20,32.7,20.4,9.9,25.1,16.2,5.9,93,84,66,29.91,29.73,15,4,15,0.00
2013-12-21,28.0,12.4,-3.8,13.9,3.8,-7.6,89,70,49,30.18,29.80,13,4,21,0.00
2013-12-22,10.9,6.6,1.7,2.2,-0.2,-3.9,79,73,67,30.28,30.19,9,2,9,0.00
2013-12-23,20.6,8.2,0.6,7.6,0.6,-4.5,83,71,54,30.81,30.66,18,12,21,0.00
2013-12-24,41.5,15.5,-1.4,17.5,5.1,-4.6,90,67,35,30.77,30.44,15,4,33,0.00
2013-12-25,30.8,11.1,-4.5,7.8,-1.5,-11.8,70,57,35,30.90,30.64,18,6,24,0.00
2013-12-26,33.8,15.6,-5.5,15.4,5.7,-10.1,81,66,41,31.00,30.72,14,4,14,0.00
2013-12-27,35.6,8.4,-1.2,15.4,3.5,-4.6,92,81,43,30.94,30.60,8,2,8,0.00
2013-12-28,36.2,14.3,-0.7,18.6,8.6,-4.5,91,79,44,30.65,30.25,12,1,12,0.00
2013-12-29,30.6,17.9,5.7,20.1,9.1,-4.2,91,70,36,30.39,30.19,20,5,20,0.00
2013-12-30,38.4,12.7,-2.4,17.7,2.4,-8.9,80,64,41,30.70,30.39,23,5,23,0.01
2013-12-31,42.2,13.8,-4.3,22.4,6.0,-8.5,85,72,44,30.73,30.44,16,3,16,0.00
2014-1-1,37.2,24.6,6.6,20.3,6.4,-5.1,86,51,21,30.49,30.25,49,8,49,0.00
2014-1-2,37.4,13.0,-1.0,11.6,1.2,-9.6,76,60,31,30.65,30.45,23,6,23,0.00